Location: Fort Worth, Tx
(32.7431°N, 97.3695°W)
Time: 17:24:51
(UTC-04:00)

First-Move - Visible Passes

Search period start: 31 March 2023 00:00
Search period end: 10 April 2023 00:00
Orbit: 563 x 644 km, 97.7° (Epoch: 30 March)

Date Brightness Start Highest point End Pass type
(mag) Time Alt. Az. Time Alt. Az. Time Alt. Az.
31 Mar ? 06:18:24 10° N 06:20:45 32° N 06:20:45 32° N visible
01 Apr ? 06:30:43 10° N 06:33:11 30° NNW 06:33:11 30° NNW visible
02 Apr ? 05:08:16 10° NE 05:08:45 12° ENE 05:08:45 12° ENE visible
02 Apr ? 06:43:07 10° NNW 06:45:35 25° NW 06:45:35 25° NW visible
03 Apr ? 05:19:45 10° NE 05:21:07 17° ENE 05:21:07 17° ENE visible
03 Apr ? 06:55:37 10° NNW 06:57:56 19° WNW 06:57:56 19° WNW visible
04 Apr ? 05:31:28 10° NNE 05:33:27 23° NE 05:33:27 23° NE visible
04 Apr ? 07:08:22 10° NW 07:10:17 14° WNW 07:10:17 14° WNW visible
05 Apr ? 05:43:17 10° NNE 05:45:46 32° NE 05:45:46 32° NE visible
05 Apr ? 07:22:01 10° WNW 07:22:29 10° WNW 07:22:35 10° WNW visible
06 Apr ? 05:55:12 10° NNE 05:58:03 43° NNE 05:58:03 43° NNE visible
07 Apr ? 06:07:09 10° N 06:10:18 53° N 06:10:18 53° N visible
08 Apr ? 06:19:12 10° N 06:22:32 49° NW 06:22:32 49° NW visible
09 Apr ? 04:57:45 10° ENE 04:57:55 10° ENE 04:57:55 10° ENE visible
09 Apr ? 06:31:17 10° N 06:34:44 37° WNW 06:34:44 37° WNW visible
